User: anonymous   Login
Location: Unspecified
(0.0000°N, 0.0000°E)
Time: 01:57:17
(UTC+00:00)
Language:

CUSAT 1 - Orbit

View from above orbital plane
View from above orbital plane
View from above satellite
View from above satellite

Ground track
Ground track

The orbit data is extracted from the following two-line orbital elements,

1 39266U 13055B   17147.92259499 +.00002076 +00000-0 +59090-4 0  9991
2 39266 080.9893 029.8668 0662385 288.9422 064.1116 14.28866094189105
Epoch (UTC): 27 May 2017 22:08:32
Eccentricity: 0.0662385
inclination: 80.9893°
perigee height: 320 km
apogee height: 1270 km
right ascension of ascending node: 29.8668°
argument of perigee: 288.9422°
revolutions per day: 14.28866094
mean anomaly at epoch: 64.1116°
orbit number at epoch: 18910

The dashed part of the orbit path shows where the satellite is in the earth's shadow,  

DLR